Location: Newark
(47.5989°N, 4.6950°E)
Time: 03:06:17
(UTC+00:00)

Envisat - Pass Details

Date: 17 November 2019
Orbit: 764 x 766 km, 98.1° (Epoch: 05 December)

Event Time Altitude Azimuth Distance (km) Brightness Sun altitude
Rises 18:30:09 0° 195° (SSW) 3,220 6.4 -24.6°
Reaches altitude 10° 18:32:43 10° 206° (SSW) 2,299 5.8 -25.0°
Maximum altitude 18:37:06 29° 266° (W) 1,381 4.9 -25.8°
Drops below altitude 10° 18:41:31 10° 326° (NW) 2,313 5.9 -26.5°
Sets 18:44:08 0° 338° (NNW) 3,244 6.5 -27.0°
